[[{"header":{"parameterUnit":"m.s-1","parameterCategory":1,"la1":30.2991,"la2":30.254,"lo1":-89.0895,"lo2":-89.0444,"dy":0.0017,"dx":0.0017,"nx":28,"ny":28,"refTime":"2025-12-17T09:00:00:Z","depth":0,"parameterNumber":2,"parameterNumberName":"U-component_of_WINDS"},"data":[0,0,0,0,0,0,0,0,0,0,0,0,0,0,0,0,0,0,0,0,0,0,0,0,0,0,0,0,0,0,0,0,0,0,0,0,0,0,0,0,0,0,0,0,0,0,0,0,0,0,0,0,0,0,0,0,0,0,-4.1831,-4.1831,0,-4.1859,-4.1859,-4.1859,-4.169,-4.1685,-4.168,-4.1676,-4.1708,-4.1713,-4.1719,0,0,0,0,0,0,0,0,0,0,0,0,0,-4.1637,-4.1642,-4.1831,-4.1832,-4.1832,-4.1859,-4.1859,-4.1859,-4.1691,-4.1685,-4.1679,-4.1674,-4.1707,-4.1713,-4.1719,0,0,0,0,0,0,0,0,0,0,0,0,0,-4.1699,-4.1643,-4.1831,-4.1751,-4.1744,-4.1858,-4.1859,-4.1859,-4.1692,-4.1685,-4.1678,-4.1671,-4.1704,-4.1712,-4.172,-4.1914,0,0,-4.1745,-4.1748,0,0,0,0,0,0,0,0,-4.1696,-4.1706,-4.1762,-4.1757,-4.1749,-4.1763,-4.1802,-4.1878,-4.1694,-4.1712,-4.1676,-4.1667,-4.1733,-4.1738,-4.1759,-4.1916,-4.1917,-4.1745,-4.175,-4.1754,-4.1756,0,0,0,0,0,0,0,-4.1692,-4.1704,-4.1842,-4.1763,-4.1755,-4.1715,-4.1716,-4.1816,-4.1763,-4.171,-4.1698,-4.1703,-4.1728,-4.1752,-4.1759,-4.1918,-4.1745,-4.1752,-4.1757,-4.176,-4.2237,-4.2244,0,0,0,0,0,0,-4.1698,-4.1702,-4.1841,-4.1843,-4.1704,-4.1724,-4.1725,-4.1766,-4.1761,-4.1753,-4.1709,-4.1695,-4.1742,-4.1749,-4.1759,-4.1988,-4.1754,-4.1761,-4.1766,-4.2229,-4.2239,-4.2247,0,0,0,0,0,0,-4.1694,-4.1712,-4.184,-4.1769,-4.1782,-4.1735,-4.1783,-4.1771,-4.1794,-4.176,-4.175,-4.1743,-4.1736,-4.1748,-4.1877,-4.1986,-4.1765,-4.1772,-4.222,-4.2232,-4.2243,-4.2446,0,0,0,0,0,0,-4.1689,-4.1711,-4.1784,-4.1772,-4.1787,-4.1957,-4.1789,-4.1776,-4.1808,-4.179,-4.179,-4.1783,-4.1731,-4.1866,-4.1885,-4.1994,-4.1778,-4.221,-4.2225,-4.2239,-4.243,-4.2463,-4.2492,0,0,0,0,0,-4.1683,-4.184,-4.1788,-4.1806,-4.1876,-4.1964,-4.1972,-4.1909,-4.1818,-4.1891,-4.1869,-4.1783,-4.1971,-4.1881,-4.1901,-4.2013,-4.2203,-4.2221,-4.2238,-4.2415,-4.2457,-4.2492,0,0,0,0,0,0,-4.1868,-4.1837,-4.1779,-4.1937,-4.1954,-4.1935,-4.2025,-4.1954,-4.1998,-4.198,-4.19,-4.1901,-4.2045,-4.2041,-4.1941,-4.2202,-4.2071,-4.2094,-4.2199,-4.2238,-4.2269,-4.2268,-4.1785,0,0,0,0,0,-4.1926,-4.1999,-4.1969,-4.2111,-4.2122,-4.2073,-4.2109,-4.2058,-4.2073,-4.208,-4.2067,-4.2086,-4.2149,-4.2193,-4.2249,-4.2427,-4.2426,-4.2515,-4.2546,-4.2572,-4.2593,-4.269,-4.2729,-4.2305,-4.2305,-4.2305,0,0,-4.2049,-4.2042,-4.2092,-4.2148,-4.2155,-4.2234,-4.208,-4.2169,-4.2227,-4.2093,-4.2215,-4.2207,-4.2223,-4.2378,-4.2446,-4.238,-4.271,-4.2595,-4.2616,-4.2623,-4.2712,-4.2752,-4.2788,-4.2317,-4.2315,-4.2313,0,0,-4.2314,-4.2314,-4.2434,-4.2444,-4.2456,-4.2422,-4.2451,-4.2443,-4.2432,-4.2552,-4.2454,-4.2523,-4.2633,-4.2649,-4.2672,-4.2943,-4.2867,-4.2963,-4.3129,-4.3224,-4.3257,-4.3286,-4.3386,-4.3422,-4.2984,-4.2985,-4.2985,0,-4.2466,-4.2578,-4.2504,-4.2601,-4.2629,-4.251,-4.2632,-4.2646,-4.2677,-4.27,-4.2625,-4.2762,-4.2764,-4.2922,-4.2989,-4.301,-4.3042,-4.2964,-4.3258,-4.3286,-4.3313,-4.3407,-4.3444,-4.2997,-4.2995,-4.2994,-4.2993,0,-4.2765,-4.2845,-4.2941,-4.2973,-4.3011,-4.312,-4.3065,-4.3113,-4.3059,-4.3034,-4.3159,-4.3158,-4.3212,-4.3245,-4.3194,-4.3398,-4.3356,-4.3271,-4.3139,-4.3366,-4.3454,-4.3489,-4.3014,-4.3009,-4.3006,-4.3003,0,0,-4.3148,-4.3138,-4.3175,-4.3188,-4.3194,-4.3255,-4.3359,-4.3411,-4.3455,-4.3481,-4.3568,-4.3664,-4.3585,-4.3611,-4.356,-4.3643,-4.3861,-4.3547,-4.3546,-4.3608,-4.4088,-4.4155,-4.4197,-4.3809,-4.3816,-4.3821,-4.4088,0,-4.3409,-4.3584,-4.3521,-4.3702,-4.3777,-4.3665,-4.3755,-4.377,-4.3749,-4.381,-4.3787,-4.3857,-4.3746,-4.3762,-4.3838,-4.3819,-4.3957,-4.3798,-4.3892,-4.3896,-4.3894,-4.4242,-4.4312,-4.4565,-4.4121,-4.4127,-4.4131,0,-4.3736,-4.3774,-4.3962,-4.3956,-4.3985,-4.4067,-4.4111,-4.417,-4.4185,-4.4163,-4.4193,-4.4125,-4.4228,-4.4094,-4.4237,-4.413,-4.4165,-4.4161,-4.4169,-4.4177,-4.4029,-4.4263,-4.4643,-4.4682,-4.4183,-4.4179,-4.4175,0,-4.4,-4.4098,-4.4223,-4.4238,-4.4233,-4.4295,-4.4296,-4.4302,-4.4339,-4.4377,-4.44,-4.4451,-4.4479,-4.4521,-4.4469,-4.4376,-4.4621,-4.4481,-4.4608,-4.461,-4.4667,-4.4665,-4.5061,-4.4685,-4.4685,-4.4684,-4.4683,0,-4.4299,-4.4419,-4.4342,-4.442,-4.4552,-4.4479,-4.4612,-4.46,-4.4608,-4.4683,-4.4588,-4.4661,-4.4587,-4.4653,-4.4613,-4.4739,-4.4752,-4.4739,-4.4728,-4.475,-4.4752,-4.4773,-4.4755,-4.4694,-4.4692,-4.469,-4.4688,0,-4.4617,-4.457,-4.47,-4.4684,-4.4683,-4.4782,-4.4769,-4.4841,-4.4813,-4.4909,-4.4928,-4.4885,-4.4958,-4.4909,-4.4983,-4.4956,-4.5122,-4.5085,-4.5117,-4.5108,-4.5239,-4.5229,-4.5665,-4.572,-4.5307,-4.5311,-4.5314,0,-4.4812,-4.4902,-4.4896,-4.4938,-4.4945,-4.5016,-4.5052,-4.4983,-4.5025,-4.5049,-4.5119,-4.5184,-4.5232,-4.5355,-4.5332,-4.5388,-4.5353,-4.5502,-4.5361,-4.5381,-4.5359,-4.5356,-4.5365,-4.5532,-4.5537,-4.5541,-4.5544,0,-4.5164,-4.5136,-4.5191,-4.524,-4.5285,-4.532,-4.5347,-4.5388,-4.5319,-4.5371,-4.5444,-4.5482,-4.5557,-4.5624,-4.5671,-4.5673,-4.56,-4.5588,-4.5621,-4.5646,-4.5662,-4.5658,-4.5198,-4.5579,-4.5576,-4.5573,-4.5571,-4.557,-4.5428,-4.5503,-4.5511,-4.5577,-4.5589,-4.5617,-4.5685,-4.5665,-4.5725,-4.578,-4.5736,-4.5825,-4.5838,-4.5893,-4.5905,-4.5974,-4.5914,-4.5961,-4.5973,-4.5987,-4.6006,-4.5649,-4.5982,-4.5981,-4.598,-4.5979,-4.5979,0,-4.5778,-4.5777,-4.5837,-4.5878,-4.593,-4.5853,-4.5879,-4.5929,-4.6007,-4.6025,-4.6074,-4.616,-4.6224,-4.6206,-4.6264,-4.6323,-4.6291,-4.6341,-4.6338,-4.634,-4.6056,-4.6023,-4.6367,-4.6367,-4.6367,-4.6366,-4.6366,-4.6366,-4.5966,-4.609,-4.6064,-4.6194,-4.6193,-4.6278,-4.63,-4.6326,-4.634,-4.6439,-4.6492,-4.6479,-4.6483,-4.6541,-4.6597,-4.659,-4.6617,-4.6681,-4.6662,-4.6398,-4.636,-4.6323,-4.6292,-4.6687,-4.6687,-4.6941,-4.6943,-4.6945]},{"header":{"parameterUnit":"m.s-1","parameterCategory":1,"la1":30.2991,"la2":30.254,"lo1":-89.0895,"lo2":-89.0444,"dy":0.0017,"dx":0.0017,"nx":28,"ny":28,"refTime":"2025-12-17T09:00:00:Z","depth":0,"parameterNumber":3,"parameterNumberName":"V-component_of_WINDS"},"data":[0,0,0,0,0,0,0,0,0,0,0,0,0,0,0,0,0,0,0,0,0,0,0,0,0,0,0,0,0,0,0,0,0,0,0,0,0,0,0,0,0,0,0,0,0,0,0,0,0,0,0,0,0,0,0,0,0,0,-2.2459,-2.2458,0,-2.2385,-2.2384,-2.2383,-2.2309,-2.2308,-2.2307,-2.2306,-2.2229,-2.2228,-2.2227,0,0,0,0,0,0,0,0,0,0,0,0,0,-2.2534,-2.2533,-2.2459,-2.2458,-2.2457,-2.2385,-2.2384,-2.2383,-2.2309,-2.2308,-2.2307,-2.2306,-2.223,-2.2228,-2.2227,0,0,0,0,0,0,0,0,0,0,0,0,0,-2.2485,-2.2533,-2.2459,-2.2412,-2.2407,-2.2385,-2.2384,-2.2383,-2.231,-2.2308,-2.2307,-2.2305,-2.223,-2.2228,-2.2227,-2.2246,0,0,-2.2221,-2.2221,0,0,0,0,0,0,0,0,-2.2488,-2.2483,-2.242,-2.2415,-2.2409,-2.2355,-2.2382,-2.2337,-2.231,-2.2346,-2.2306,-2.2305,-2.2272,-2.2267,-2.2256,-2.2242,-2.2239,-2.2221,-2.222,-2.222,-2.2219,0,0,0,0,0,0,0,-2.2492,-2.2485,-2.243,-2.2419,-2.2412,-2.2393,-2.2385,-2.2373,-2.2318,-2.2343,-2.2338,-2.233,-2.2269,-2.2258,-2.2254,-2.2237,-2.2221,-2.222,-2.2219,-2.2218,-2.2233,-2.2235,0,0,0,0,0,0,-2.2502,-2.2489,-2.2432,-2.2427,-2.2446,-2.2393,-2.2384,-2.2374,-2.2318,-2.2308,-2.2331,-2.2327,-2.2262,-2.2256,-2.2251,-2.2268,-2.222,-2.2218,-2.2217,-2.2232,-2.2234,-2.2235,0,0,0,0,0,0,-2.2504,-2.2498,-2.2435,-2.2456,-2.2447,-2.2394,-2.2383,-2.2373,-2.2362,-2.2309,-2.2299,-2.233,-2.226,-2.2253,-2.2247,-2.2265,-2.2217,-2.2216,-2.223,-2.2233,-2.2235,-2.2305,0,0,0,0,0,0,-2.2507,-2.2499,-2.2507,-2.2457,-2.2446,-2.2434,-2.2384,-2.2373,-2.2359,-2.2353,-2.2306,-2.2296,-2.2258,-2.225,-2.2245,-2.2261,-2.2214,-2.2229,-2.2231,-2.2234,-2.23,-2.2309,-2.2316,0,0,0,0,0,-2.251,-2.2529,-2.2507,-2.2501,-2.2454,-2.2435,-2.2428,-2.2385,-2.2361,-2.2367,-2.2333,-2.2298,-2.2264,-2.225,-2.2244,-2.226,-2.2227,-2.2231,-2.2234,-2.2297,-2.2307,-2.2316,0,0,0,0,0,0,-2.2582,-2.2522,-2.2497,-2.2501,-2.2474,-2.2422,-2.2429,-2.2397,-2.2375,-2.237,-2.2316,-2.2306,-2.2306,-2.2282,-2.2269,-2.2275,-2.224,-2.2243,-2.229,-2.23,-2.2307,-2.2313,-2.2213,0,0,0,0,0,-2.2598,-2.2588,-2.2536,-2.2545,-2.2532,-2.2483,-2.2473,-2.2442,-2.2411,-2.2399,-2.2364,-2.2335,-2.2318,-2.2307,-2.2288,-2.2296,-2.2285,-2.2304,-2.2312,-2.2319,-2.2321,-2.2323,-2.2331,-2.2246,-2.2246,-2.2246,0,0,-2.2632,-2.2598,-2.2595,-2.2558,-2.2533,-2.2523,-2.2474,-2.2465,-2.2457,-2.2397,-2.2389,-2.2363,-2.2327,-2.2328,-2.2327,-2.2308,-2.2342,-2.2323,-2.2329,-2.2327,-2.2327,-2.2335,-2.2342,-2.2248,-2.2248,-2.2247,0,0,-2.2688,-2.2662,-2.2666,-2.2642,-2.2604,-2.2571,-2.2572,-2.2526,-2.2506,-2.2497,-2.2452,-2.2441,-2.2412,-2.2388,-2.2372,-2.2418,-2.2384,-2.2413,-2.2454,-2.2456,-2.2462,-2.2468,-2.2484,-2.249,-2.2416,-2.2416,-2.2416,0,-2.2735,-2.2719,-2.2672,-2.2666,-2.2651,-2.2596,-2.2599,-2.2577,-2.2536,-2.2526,-2.2506,-2.2468,-2.244,-2.2434,-2.2445,-2.2434,-2.2433,-2.2418,-2.2465,-2.247,-2.2475,-2.2489,-2.2496,-2.242,-2.2419,-2.2419,-2.2418,0,-2.2777,-2.2766,-2.2774,-2.2735,-2.2721,-2.2719,-2.2671,-2.2662,-2.2632,-2.2601,-2.2592,-2.2556,-2.2529,-2.2525,-2.2495,-2.2514,-2.2504,-2.2475,-2.244,-2.2488,-2.25,-2.2505,-2.2425,-2.2424,-2.2422,-2.2421,0,0,-2.2878,-2.2812,-2.2816,-2.2797,-2.2752,-2.2742,-2.2737,-2.2711,-2.2703,-2.2676,-2.2671,-2.2647,-2.262,-2.2602,-2.2569,-2.2571,-2.2608,-2.2541,-2.2539,-2.2555,-2.2626,-2.2648,-2.2655,-2.2585,-2.2586,-2.2587,-2.2629,0,-2.2926,-2.2915,-2.2873,-2.2874,-2.2863,-2.2811,-2.2806,-2.2778,-2.2748,-2.2734,-2.2701,-2.2685,-2.2651,-2.2639,-2.2639,-2.2604,-2.2622,-2.26,-2.2579,-2.2579,-2.259,-2.2662,-2.2685,-2.2727,-2.2634,-2.2634,-2.2635,0,-2.2981,-2.2957,-2.2959,-2.2912,-2.2906,-2.2903,-2.2874,-2.2862,-2.2827,-2.2805,-2.2785,-2.2748,-2.2739,-2.2706,-2.2693,-2.2679,-2.2667,-2.2649,-2.2649,-2.2646,-2.261,-2.266,-2.2739,-2.2746,-2.2642,-2.2642,-2.2641,0,-2.3054,-2.3022,-2.3018,-2.3004,-2.295,-2.2949,-2.2926,-2.2891,-2.2877,-2.2851,-2.2842,-2.2816,-2.2802,-2.2782,-2.2738,-2.2718,-2.273,-2.2693,-2.2711,-2.2712,-2.2716,-2.2716,-2.2794,-2.2709,-2.2709,-2.2709,-2.2709,0,-2.3112,-2.3115,-2.305,-2.3048,-2.3049,-2.2999,-2.3001,-2.2973,-2.2941,-2.2932,-2.2884,-2.2877,-2.2819,-2.2805,-2.277,-2.2764,-2.2758,-2.274,-2.2731,-2.2744,-2.2747,-2.2736,-2.2732,-2.271,-2.271,-2.271,-2.2709,0,-2.3194,-2.3151,-2.3143,-2.3092,-2.3079,-2.3082,-2.3038,-2.3034,-2.3001,-2.299,-2.2984,-2.2933,-2.2913,-2.2867,-2.2835,-2.2812,-2.2814,-2.2798,-2.2826,-2.2821,-2.2841,-2.284,-2.2915,-2.2922,-2.2833,-2.2834,-2.2834,0,-2.3234,-2.3235,-2.3184,-2.3175,-2.3154,-2.3139,-2.3125,-2.3075,-2.3062,-2.3022,-2.3022,-2.2998,-2.2977,-2.2947,-2.2907,-2.2881,-2.2864,-2.2892,-2.286,-2.2873,-2.2864,-2.2865,-2.2864,-2.2899,-2.29,-2.2901,-2.2902,0,-2.331,-2.3288,-2.327,-2.3244,-2.3228,-2.3205,-2.3179,-2.3174,-2.3117,-2.3105,-2.3084,-2.3067,-2.3034,-2.3011,-2.2979,-2.2955,-2.2919,-2.2913,-2.2915,-2.2929,-2.2946,-2.2937,-2.2846,-2.2911,-2.291,-2.291,-2.2909,-2.2909,-2.3372,-2.337,-2.3334,-2.3314,-2.3289,-2.3266,-2.3259,-2.3225,-2.3207,-2.3177,-2.3148,-2.313,-2.3094,-2.3048,-2.3025,-2.301,-2.2992,-2.2996,-2.2997,-2.2999,-2.3005,-2.2948,-2.3004,-2.3004,-2.3003,-2.3003,-2.3003,0,-2.3445,-2.3419,-2.3402,-2.3367,-2.3351,-2.3319,-2.3288,-2.3277,-2.3262,-2.3232,-2.3211,-2.3187,-2.3164,-2.3121,-2.3094,-2.309,-2.3073,-2.3084,-2.3084,-2.3079,-2.3022,-2.3023,-2.3099,-2.3099,-2.3098,-2.3098,-2.3098,-2.3098,-2.3482,-2.3476,-2.345,-2.3431,-2.3404,-2.3387,-2.3372,-2.335,-2.3325,-2.33,-2.3281,-2.3253,-2.3217,-2.3187,-2.3164,-2.3152,-2.3144,-2.3161,-2.3144,-2.3092,-2.3083,-2.3074,-2.3074,-2.316,-2.316,-2.3202,-2.3202,-2.3202]}]]